Terug naar catalogus

CZ-4B DEB

ActiefSSO
NORAD 38311·DEBRIS·🇨🇳 China

Gelanceerd Dec 22, 2011 vanaf Taiyuan Satellite Launch Center

Loading…

Volgende Passages (komende 24 uur)

TLE

VersSource: Space-Track

Epoch: Sep 14, 2026, 10:12 UTC

1 38311U 11079E   26257.42506774  .00001210  00000-0  28923-3 0  9992
2 38311  98.1854 238.8749 0099851 221.7444 291.7601 14.52436871772081

Volg CZ-4B DEB in realtime met AllMySat

Download on the App Store